SCP
0 0 0 0 0 0 0 0 0 0 0 0 0 0 0 0 0 0 0 0 0 0 0 0 0 0 0 0 0 0 0 0 0 0 0 0 0 0
0 0 0 0 0 0 0 0 0 0 0 0 0 0 0 0 0 0 0 0 0 0 0 0 0 0 0 0 0 0 0 0 0 0 0 0 0 0
0 0 0 0 0 0 0 0 0 0 0 0 0 0 0 0 0 0 0 0 0 0 0 0 0 0 0 0 0 0 0 0 0 0 0 0 0 0
0 0 0 0 0 0 0 0 0 0 0 0 0 0 0 0 0 0 0 0 0 0 0 0 0 0 0 0 0 0 0 0 0 0 0 0 0 0
0 0 0 0 0 0 0 0 0 0 0 0 0 0 0 0 0 0 0 0 0 0 0 0 0 0 0 0 0 0 0 0 0 0 0 0 -0 0
0 0 0 0 0 0 0 0 0 0 0 0 0 0 0 0 0 0 0 0 0 0 0 0 0 0 0 0 0 0 0 0 0 0 0 0 -0 0
0 0 0 0 0 0 0 0 0 0 0 0 0 0 0 0 0 0 0 0 0 0 0 0 0 0 0 0 0 0 0 0 0 0 0 0 0 0
0 0 0 0 0 -0 0 0 0 0 0 0 0 0 0 0 0 0 0 0 0 0 0 0 0 0 0 0 0 0 0 0 0 0 0 0 0 0
0 0 0 0 0 0 0 0 0 0 0 0 0 0 0 0 0 0 0 0 0 0 0 0 0 0 0 0 0 0 0 0 0 0 0 0 -0 -0
0 0 0 0 0 0 0 0 0 0 0 0 0 0 0 0 0 0 0 0 0 0 0 0 0 0 -0 -0 -0 0 0 0 0 0 0 0 0 0
0 0 0 0 0 0 0 0 0 0 0 0 0 0 0 0 0 0 -0 -0 0 0 0 0 0 -0 -0 0 0 0 0 0 0 0 0 0 0 0
0 0 0 0 0 0 0 0 0 0 0 0 0 0 0 -0 0 0 0 -0 -0 -0 0 0 0 -0 0 0 0 0 0 0 0 0 0 0 0 0
0 0 0 0 0 0 0 0 0 0 0 0 0 0 0 0 -0 -0 0 0 -0 -0 0 0 0 -0 0 0 0 0 0 -0 0 0 0 0 -0 0
0 0 0 0 0 0 0 0 0 0 0 0 0 0 0 -0 -0 0 0 0 0 0 0 0 -0 -0 -0 -0 0 0 0 0 0 0 0 0 -0 -0
0 0 0 0 0 0 0 0 0 0 0 0 0 0 0 -0 -0 0 -0 -0 0 0 0 0 -0 0 -0 0 0 0 -0 0 0 -0 0 0 0 -0
0 0 0 0 0 0 0 0 0 0 0 0 0 0 0 -0 -0 -0 -0 -0 0 -0 -0 0 -0 0 0 0 0 0 0 0 -0 -0 0 -0 -0 0
0 0 0 0 0 0 0 0 0 0 0 0 0 0 0 -0 -0 -0 -0 -0 -0 -0 -0 0 -0 0 -0 0 0 -0 -0 0 -0 -0 0 0 0 0
0 0 0 0 0 0 -0 0 0 0 0 0 0 -0 -0 -0 -0 -0 -0 -0 -0 -0 0 -0 -0 -0 0 -0 -0 -0 0 0 0 0 0 0 0 0
0 0 0 0 0 0 0 0 0 0 0 0 0 -0 -0 -0 0 0 0 -0 0 0 -0 -0 0 0 0 0 0 -0 0 0 0 0 0 0 0 0
0 0 0 0 0 0 0 0 0 0 0 0 0 0 0 -0 -0 -0 -0 -0 0 0 -0 0 0 0 0 0 0 0 0 0 0 0 0 0 0 0
0 0 0 0 0 0 0 0 0 0 0 0 0 0 0 0 0 -0 -0 -0 0 -0 0 0 0 0 0 0 0 0 0 0 0 0 0 0 0 0
0 0 0 0 0 0 0 0 0 0 0 0 0 0 0 0 0 -0 0 0 0 0 0 0 0 0 0 0 0 0 -0 -0 -0 -0 -0 -0 0 0
0 0 0 0 0 0 0 0 0 0 0 0 0 0 0 0 0 0 0 0 0 0 0 0 0 0 0 -0 -0 -0 0 0 0 0 0 0 0 0
Wind_Speed_500mb
26 24 20 20 17 15 5 13 11 13 19 15 23 39 43 33 27 28 28 25 24 26 31 35 36 35 34 32 31 30 33 39 43 42 39 40 44 43
25 22 20 19 19 17 17 16 15 17 20 27 32 17 24 20 17 22 23 26 26 26 28 28 30 31 29 23 23 25 26 27 27 28 32 34 39 39
34 33 31 29 24 21 18 16 14 15 15 16 14 19 16 20 16 19 24 29 30 29 29 28 27 30 27 31 31 29 30 33 31 28 24 25 31 34
27 27 27 27 26 24 24 23 20 18 23 23 22 23 22 26 29 32 34 33 36 35 30 27 25 26 29 32 34 30 35 36 38 32 27 30 33 33
31 27 29 29 24 22 21 20 19 20 23 26 29 32 30 33 37 31 33 39 35 29 18 19 16 19 21 16 23 33 37 40 36 38 31 39 37 38
43 42 41 41 40 32 24 24 24 27 30 29 30 36 30 34 35 40 44 40 38 22 20 25 24 20 19 23 28 36 35 38 30 30 35 36 37 37
41 43 43 41 38 36 30 24 27 29 31 32 29 30 35 36 41 43 44 44 38 27 27 19 22 22 17 24 28 32 31 27 30 30 31 33 35 33
33 34 33 33 31 31 27 20 25 30 33 34 33 35 37 39 42 42 41 42 45 29 37 23 15 16 23 29 36 37 32 27 29 26 31 32 32 31
30 33 30 31 32 27 20 19 21 24 29 31 32 31 36 37 40 41 41 40 36 34 34 25 19 24 29 39 43 38 23 22 23 28 30 29 33 35
33 34 33 31 31 31 29 26 24 26 29 28 32 32 35 38 39 39 38 39 37 32 24 29 24 31 40 40 21 14 15 19 22 28 32 33 37 36
26 28 31 30 32 36 32 29 21 22 27 24 32 37 38 37 36 38 36 37 34 23 24 25 31 43 43 7 11 15 14 21 27 32 35 41 40 40
24 28 30 31 34 38 38 31 23 28 25 27 38 37 36 42 35 37 32 32 32 29 20 25 32 36 22 13 20 10 19 28 29 28 35 36 36 36
33 34 34 32 36 41 39 28 27 24 32 43 46 44 45 43 33 32 25 28 28 30 30 31 33 29 26 30 22 11 25 33 26 28 32 31 28 24
33 35 38 41 41 42 39 26 22 33 45 49 51 53 53 49 37 32 26 22 23 23 25 31 23 30 20 29 27 28 31 29 24 29 25 20 18 12
36 40 43 45 41 39 38 38 40 46 51 49 50 51 49 42 31 31 21 20 17 21 16 21 26 27 19 23 29 31 37 30 16 29 21 18 17 11
44 46 48 47 47 47 46 44 47 50 48 49 47 44 48 40 28 24 24 26 17 11 20 22 26 25 18 18 24 26 30 18 25 21 17 19 15 13
46 50 55 59 62 64 61 55 50 48 52 51 47 42 40 42 29 24 20 20 19 19 23 20 19 16 15 16 19 25 26 14 20 15 13 17 17 18
46 52 56 61 64 68 67 60 53 56 56 51 44 40 32 34 29 25 20 17 17 17 18 23 20 16 13 17 18 27 18 13 16 15 13 13 15 19
44 50 56 62 68 71 71 62 57 57 57 52 44 39 31 29 24 23 21 16 18 18 18 23 17 14 14 17 12 22 15 14 11 17 17 17 16 17
40 47 55 62 73 74 76 67 59 59 58 59 49 36 31 27 23 22 17 18 19 17 23 15 15 11 14 14 18 18 15 17 15 11 6 24 21 19
40 44 53 61 73 79 79 69 62 59 57 65 48 33 27 25 20 17 16 18 15 16 18 14 14 10 9 8 15 21 28 35 38 33 15 7 14 26
38 43 52 60 72 81 80 74 66 67 62 61 39 28 24 21 18 17 16 15 14 14 14 16 12 11 16 21 24 26 27 28 30 33 32 31 28 22
37 40 50 60 74 81 80 74 68 70 67 46 35 27 24 21 19 16 14 12 11 14 14 14 14 19 23 25 23 21 21 24 27 25 28 23 26 20
Wind_Direction_500mb
24 19 20 17 10 356 7 13 2 327 312 282 301 315 318 319 323 334 328 326 323 309 294 283 277 281 279 277 281 285 287 283 277 275 273 279 281 279
12 6 6 2 354 345 343 328 320 311 301 296 308 343 359 358 344 332 323 317 310 298 296 293 283 278 267 264 267 282 294 297 297 288 289 297 291 280
33 31 32 27 16 7 6 13 23 17 354 346 335 334 329 337 337 342 333 330 320 302 295 295 294 287 277 266 270 281 288 291 284 289 294 299 294 288
23 26 28 25 21 26 33 34 28 12 10 3 356 356 346 336 335 325 331 329 327 318 303 294 297 297 285 273 272 276 282 281 279 275 278 290 299 288
27 20 13 9 8 12 9 4 1 2 351 343 340 335 334 332 327 328 333 330 332 333 308 294 296 300 293 281 291 290 289 281 266 272 277 283 291 293
43 40 33 27 21 14 6 8 7 357 344 330 330 329 333 337 337 335 338 346 346 333 300 301 296 294 299 295 289 295 289 283 266 271 289 285 291 289
37 35 32 28 21 16 15 19 24 11 357 354 353 342 330 334 337 335 335 331 332 338 326 320 294 288 287 290 296 303 297 274 271 278 283 289 291 292
19 15 10 7 11 14 15 18 9 8 7 3 357 344 340 334 327 325 331 328 327 336 323 328 324 305 294 296 302 302 300 280 264 283 285 287 291 290
7 6 7 1 358 355 342 341 338 338 340 347 352 344 337 334 326 325 322 320 318 322 319 322 297 296 303 303 297 294 280 275 278 291 290 291 293 295
356 3 3 355 350 348 348 340 314 324 321 323 339 332 330 328 321 316 317 314 313 318 316 304 299 308 306 308 297 275 273 273 289 295 291 294 297 290
358 359 357 354 351 348 339 341 329 333 336 312 329 328 321 325 322 316 309 316 312 327 313 290 328 322 328 289 281 279 280 285 290 293 297 298 295 292
3 359 356 353 346 347 344 345 341 342 338 339 337 331 330 327 320 318 303 301 303 321 300 320 322 331 329 311 310 294 281 310 308 300 305 303 301 297
4 2 357 353 346 344 344 346 345 343 338 335 336 332 329 331 326 329 316 299 292 300 299 311 317 323 313 310 334 305 309 318 312 307 310 307 302 300
360 359 355 349 346 347 349 353 338 328 329 332 330 329 333 344 339 324 317 300 298 293 285 291 315 325 295 306 316 323 326 332 313 322 323 325 328 285
355 356 355 352 349 348 345 335 330 331 333 333 330 335 344 345 333 330 325 317 293 296 289 345 319 317 295 293 302 317 325 332 322 334 340 346 353 2
3 1 1 6 6 4 359 348 342 343 344 340 337 335 341 345 342 337 334 344 335 314 316 309 294 311 304 293 302 313 331 327 330 335 349 360 357 351
4 5 9 9 6 3 359 355 352 350 346 342 339 335 337 342 339 341 337 335 336 326 333 322 322 319 301 305 311 327 340 333 340 348 351 1 12 9
4 9 7 7 5 2 358 354 355 353 353 354 352 347 339 339 340 344 344 342 341 337 329 328 332 341 343 328 324 331 349 351 356 358 354 359 13 21
2 6 6 5 2 1 359 356 353 352 355 355 352 350 342 337 341 344 342 348 341 349 336 329 335 343 341 340 320 337 357 359 9 30 25 29 24 21
357 0 3 4 3 359 357 355 353 352 355 357 356 350 349 343 343 350 353 354 347 342 334 340 345 353 339 346 344 18 19 15 3 315 4 44 41 38
359 356 358 359 359 358 357 356 354 352 353 353 353 352 353 348 349 356 353 353 347 344 352 360 353 347 6 47 65 65 67 63 55 50 43 359 27 37
2 358 354 354 355 356 356 357 356 355 352 351 358 360 1 2 7 2 357 352 8 7 26 20 17 46 86 88 90 88 80 72 65 57 45 41 46 43
356 350 352 353 355 356 355 357 358 358 356 7 11 13 13 17 2 14 35 24 27 52 30 27 66 87 98 102 95 79 54 35 18 16 40 39 34 22
Wind_Speed_850mb
26 24 20 20 17 15 5 13 11 13 19 15 23 39 43 33 27 28 28 25 24 26 31 35 36 35 34 32 31 30 33 39 43 42 39 40 44 43
25 22 20 19 19 17 17 16 15 17 20 27 32 17 24 20 17 22 23 26 26 26 28 28 30 31 29 23 23 25 26 27 27 28 32 34 39 39
34 33 31 29 24 21 18 16 14 15 15 16 14 19 16 20 16 19 24 29 30 29 29 28 27 30 27 31 31 29 30 33 31 28 24 25 31 34
27 27 27 27 26 24 24 23 20 18 23 23 22 23 22 26 29 32 34 33 36 35 30 27 25 26 29 32 34 30 35 36 38 32 27 30 33 33
31 27 29 29 24 22 21 20 19 20 23 26 29 32 30 33 37 31 33 39 35 29 18 19 16 19 21 16 23 33 37 40 36 38 31 39 37 38
43 42 41 41 40 32 24 24 24 27 30 29 30 36 30 34 35 40 44 40 38 22 20 25 24 20 19 23 28 36 35 38 30 30 35 36 37 37
41 43 43 41 38 36 30 24 27 29 31 32 29 30 35 36 41 43 44 44 38 27 27 19 22 22 17 24 28 32 31 27 30 30 31 33 35 33
33 34 33 33 31 31 27 20 25 30 33 34 33 35 37 39 42 42 41 42 45 29 37 23 15 16 23 29 36 37 32 27 29 26 31 32 32 31
30 33 30 31 32 27 20 19 21 24 29 31 32 31 36 37 40 41 41 40 36 34 34 25 19 24 29 39 43 38 23 22 23 28 30 29 33 35
33 34 33 31 31 31 29 26 24 26 29 28 32 32 35 38 39 39 38 39 37 32 24 29 24 31 40 40 21 14 15 19 22 28 32 33 37 36
26 28 31 30 32 36 32 29 21 22 27 24 32 37 38 37 36 38 36 37 34 23 24 25 31 43 43 7 11 15 14 21 27 32 35 41 40 40
24 28 30 31 34 38 38 31 23 28 25 27 38 37 36 42 35 37 32 32 32 29 20 25 32 36 22 13 20 10 19 28 29 28 35 36 36 36
33 34 34 32 36 41 39 28 27 24 32 43 46 44 45 43 33 32 25 28 28 30 30 31 33 29 26 30 22 11 25 33 26 28 32 31 28 24
33 35 38 41 41 42 39 26 22 33 45 49 51 53 53 49 37 32 26 22 23 23 25 31 23 30 20 29 27 28 31 29 24 29 25 20 18 12
36 40 43 45 41 39 38 38 40 46 51 49 50 51 49 42 31 31 21 20 17 21 16 21 26 27 19 23 29 31 37 30 16 29 21 18 17 11
44 46 48 47 47 47 46 44 47 50 48 49 47 44 48 40 28 24 24 26 17 11 20 22 26 25 18 18 24 26 30 18 25 21 17 19 15 13
46 50 55 59 62 64 61 55 50 48 52 51 47 42 40 42 29 24 20 20 19 19 23 20 19 16 15 16 19 25 26 14 20 15 13 17 17 18
46 52 56 61 64 68 67 60 53 56 56 51 44 40 32 34 29 25 20 17 17 17 18 23 20 16 13 17 18 27 18 13 16 15 13 13 15 19
44 50 56 62 68 71 71 62 57 57 57 52 44 39 31 29 24 23 21 16 18 18 18 23 17 14 14 17 12 22 15 14 11 17 17 17 16 17
40 47 55 62 73 74 76 67 59 59 58 59 49 36 31 27 23 22 17 18 19 17 23 15 15 11 14 14 18 18 15 17 15 11 6 24 21 19
40 44 53 61 73 79 79 69 62 59 57 65 48 33 27 25 20 17 16 18 15 16 18 14 14 10 9 8 15 21 28 35 38 33 15 7 14 26
38 43 52 60 72 81 80 74 66 67 62 61 39 28 24 21 18 17 16 15 14 14 14 16 12 11 16 21 24 26 27 28 30 33 32 31 28 22
37 40 50 60 74 81 80 74 68 70 67 46 35 27 24 21 19 16 14 12 11 14 14 14 14 19 23 25 23 21 21 24 27 25 28 23 26 20
Wind_Direction_850mb
24 19 20 17 10 356 7 13 2 327 312 282 301 315 318 319 323 334 328 326 323 309 294 283 277 281 279 277 281 285 287 283 277 275 273 279 281 279
12 6 6 2 354 345 343 328 320 311 301 296 308 343 359 358 344 332 323 317 310 298 296 293 283 278 267 264 267 282 294 297 297 288 289 297 291 280
33 31 32 27 16 7 6 13 23 17 354 346 335 334 329 337 337 342 333 330 320 302 295 295 294 287 277 266 270 281 288 291 284 289 294 299 294 288
23 26 28 25 21 26 33 34 28 12 10 3 356 356 346 336 335 325 331 329 327 318 303 294 297 297 285 273 272 276 282 281 279 275 278 290 299 288
27 20 13 9 8 12 9 4 1 2 351 343 340 335 334 332 327 328 333 330 332 333 308 294 296 300 293 281 291 290 289 281 266 272 277 283 291 293
43 40 33 27 21 14 6 8 7 357 344 330 330 329 333 337 337 335 338 346 346 333 300 301 296 294 299 295 289 295 289 283 266 271 289 285 291 289
37 35 32 28 21 16 15 19 24 11 357 354 353 342 330 334 337 335 335 331 332 338 326 320 294 288 287 290 296 303 297 274 271 278 283 289 291 292
19 15 10 7 11 14 15 18 9 8 7 3 357 344 340 334 327 325 331 328 327 336 323 328 324 305 294 296 302 302 300 280 264 283 285 287 291 290
7 6 7 1 358 355 342 341 338 338 340 347 352 344 337 334 326 325 322 320 318 322 319 322 297 296 303 303 297 294 280 275 278 291 290 291 293 295
356 3 3 355 350 348 348 340 314 324 321 323 339 332 330 328 321 316 317 314 313 318 316 304 299 308 306 308 297 275 273 273 289 295 291 294 297 290
358 359 357 354 351 348 339 341 329 333 336 312 329 328 321 325 322 316 309 316 312 327 313 290 328 322 328 289 281 279 280 285 290 293 297 298 295 292
3 359 356 353 346 347 344 345 341 342 338 339 337 331 330 327 320 318 303 301 303 321 300 320 322 331 329 311 310 294 281 310 308 300 305 303 301 297
4 2 357 353 346 344 344 346 345 343 338 335 336 332 329 331 326 329 316 299 292 300 299 311 317 323 313 310 334 305 309 318 312 307 310 307 302 300
360 359 355 349 346 347 349 353 338 328 329 332 330 329 333 344 339 324 317 300 298 293 285 291 315 325 295 306 316 323 326 332 313 322 323 325 328 285
355 356 355 352 349 348 345 335 330 331 333 333 330 335 344 345 333 330 325 317 293 296 289 345 319 317 295 293 302 317 325 332 322 334 340 346 353 2
3 1 1 6 6 4 359 348 342 343 344 340 337 335 341 345 342 337 334 344 335 314 316 309 294 311 304 293 302 313 331 327 330 335 349 360 357 351
4 5 9 9 6 3 359 355 352 350 346 342 339 335 337 342 339 341 337 335 336 326 333 322 322 319 301 305 311 327 340 333 340 348 351 1 12 9
4 9 7 7 5 2 358 354 355 353 353 354 352 347 339 339 340 344 344 342 341 337 329 328 332 341 343 328 324 331 349 351 356 358 354 359 13 21
2 6 6 5 2 1 359 356 353 352 355 355 352 350 342 337 341 344 342 348 341 349 336 329 335 343 341 340 320 337 357 359 9 30 25 29 24 21
357 0 3 4 3 359 357 355 353 352 355 357 356 350 349 343 343 350 353 354 347 342 334 340 345 353 339 346 344 18 19 15 3 315 4 44 41 38
359 356 358 359 359 358 357 356 354 352 353 353 353 352 353 348 349 356 353 353 347 344 352 360 353 347 6 47 65 65 67 63 55 50 43 359 27 37
2 358 354 354 355 356 356 357 356 355 352 351 358 360 1 2 7 2 357 352 8 7 26 20 17 46 86 88 90 88 80 72 65 57 45 41 46 43
356 350 352 353 355 356 355 357 358 358 356 7 11 13 13 17 2 14 35 24 27 52 30 27 66 87 98 102 95 79 54 35 18 16 40 39 34 22